DW9064 Weather Reports


Display with metric or nautical units.
time (UTC)temp
F
wind
direction
speed
MPH
gust
MPH
rain 1hr
in
rain 24hr
in
rain mn
in
humidity
%
barometer
mb
20260502162351 61 108 1.0 8.0 0.00 0.00 0.00 46 1033.7
20260502161450 60 96 3.0 8.0 0.00 0.00 0.00 46 1033.9
20260502160550 60 93 2.0 8.0 0.00 0.00 0.00 47 1033.9
20260502152050 54 90 2.0 7.0 0.00 0.00 0.00 60 1034.3
20260502151150 54 96 2.0 8.0 0.00 0.00 0.00 61 1034.5
20260502150250 53 83 2.0 9.0 0.00 0.00 0.00 63 1034.4
20260502130550 43 1 3.0 5.0 0.00 0.00 0.00 78 1033.8
20260502122950 44 1 3.0 6.0 0.00 0.00 0.00 77 1033.6
20260502122050 44 23 2.0 8.0 0.00 0.00 0.00 77 1033.6
20260502121150 44 16 2.0 6.0 0.00 0.00 0.00 77 1033.5
20260502120250 44 39 4.0 6.0 0.00 0.00 0.00 77 1033.4
20260502113550 45 2 2.0 7.0 0.00 0.00 0.00 76 1033.4
20260502112650 44 18 2.0 5.0 0.00 0.00 0.00 77 1033.4
20260502111750 44 31 2.0 5.0 0.00 0.00 0.00 77 1033.3
20260502110850 44 12 2.0 4.0 0.00 0.00 0.00 76 1033.3
20260502105950 44 11 2.0 6.0 0.00 0.00 0.00 75 1033.2
20260502105050 44 359 3.0 5.0 0.00 0.00 0.00 75 1033.2
20260502104150 44 19 3.0 5.0 0.00 0.00 0.00 75 1033.0
20260502103250 44 357 2.0 4.0 0.00 0.00 0.00 75 1033.1
20260502101450 44 346 4.0 8.0 0.00 0.00 0.00 76 1033.1
20260502100550 44 340 4.0 8.0 0.00 0.00 0.00 76 1032.9
20260502090250 46 330 4.0 8.0 0.00 0.00 0.00 72 1032.7
20260502071449 47 333 6.0 8.0 0.00 0.00 0.00 72 1032.3
20260502070549 48 329 6.0 8.0 0.00 0.00 0.00 73 1032.2
20260502064749 49 318 5.0 8.0 0.00 0.00 0.00 71 1032.0
20260502063849 49 318 6.0 8.0 0.00 0.00 0.00 71 1031.9
20260502062949 49 320 6.0 8.0 0.00 0.00 0.00 71 1031.8
20260502062049 49 320 5.0 8.0 0.00 0.00 0.00 70 1031.6
20260502061149 50 325 5.0 8.0 0.00 0.00 0.00 69 1031.5
20260502060249 50 327 5.0 8.0 0.00 0.00 0.00 70 1031.4
20260502055349 50 324 4.0 9.0 0.00 0.00 0.00 70 1031.3
20260502054449 50 335 6.0 9.0 0.00 0.00 0.00 68 1031.2
20260502052649 50 320 5.0 8.0 0.00 0.00 0.00 70 1031.1
20260502051749 51 314 7.0 9.0 0.00 0.00 0.00 69 1030.9
20260502050849 51 320 6.0 9.0 0.00 0.00 0.00 68 1030.9
20260502045949 52 320 4.0 8.0 0.00 0.00 0.00 67 1030.8
20260502045049 52 330 5.0 9.0 0.00 0.00 0.00 65 1030.7
20260502044149 52 331 8.0 10.0 0.00 0.00 0.00 65 1030.4
20260502043249 53 316 8.0 10.0 0.00 0.00 0.00 65 1030.4
20260502042349 53 322 8.0 9.0 0.00 0.00 0.00 64 1030.3
20260502040549 53 324 6.0 8.0 0.00 0.00 0.00 64 1030.1
20260502032049 56 316 6.0 10.0 0.00 0.00 0.00 61 1029.7
20260502031149 57 314 7.0 10.0 0.00 0.00 0.00 60 1029.5
20260502025349 58 314 7.0 8.0 0.00 0.00 0.00 59 1029.3
20260502024449 59 320 6.0 8.0 0.00 0.00 0.00 57 1029.2
20260502023549 60 313 6.0 9.0 0.00 0.00 0.00 57 1029.2
20260502022649 60 314 7.0 9.0 0.00 0.00 0.00 56 1029.1
20260502021749 60 314 7.0 8.0 0.00 0.00 0.00 56 1029.0
20260502020849 61 314 7.0 8.0 0.00 0.00 0.00 55 1029.0
20260502015949 62 316 7.0 8.0 0.00 0.00 0.00 52 1029.0
20260502015049 63 316 7.0 9.0 0.00 0.00 0.00 52 1029.0
20260502014149 63 314 7.0 8.0 0.00 0.00 0.00 50 1029.1
20260502013249 64 314 6.0 8.0 0.00 0.00 0.00 49 1029.1
20260502012349 65 316 7.0 8.0 0.00 0.00 0.00 47 1029.2
20260502010549 68 316 5.0 7.0 0.00 0.00 0.00 40 1029.3
20260502005648 70 314 4.0 5.0 0.00 0.00 0.00 33 1029.4
20260502004749 74 286 4.0 5.0 0.00 0.00 0.00 24 1029.4
20260502003848 76 208 2.0 7.0 0.00 0.00 0.00 10 1029.4
20260502002048 77 214 4.0 8.0 0.00 0.00 0.00 11 1029.5
20260502001149 78 230 3.0 4.0 0.00 0.00 0.00 10 1029.4
20260501235349 78 159 2.0 9.0 0.00 0.00 0.00 10 1029.6
20260501234449 77 172 5.0 11.0 0.00 0.00 0.00 10 1029.6
20260501233548 78 186 6.0 11.0 0.00 0.00 0.00 10 1029.7
20260501232648 78 167 4.0 10.0 0.00 0.00 0.00 10 1029.7
20260501231748 78 161 2.0 8.0 0.00 0.00 0.00 10 1029.8
20260501225948 78 149 4.0 7.0 0.00 0.00 0.00 10 1030.1
20260501225048 77 175 2.0 13.0 0.00 0.00 0.00 10 1030.3
20260501224149 77 188 6.0 13.0 0.00 0.00 0.00 10 1030.3
20260501222348 77 185 4.0 13.0 0.00 0.00 0.00 10 1030.6
20260501220548 76 175 8.0 13.0 0.00 0.00 0.00 10 1030.9
20260501215648 76 173 4.0 9.0 0.00 0.00 0.00 10 1030.9
20260501214748 76 183 6.0 11.0 0.00 0.00 0.00 10 1031.1
20260501213848 76 208 6.0 13.0 0.00 0.00 0.00 10 1031.2
20260501212948 76 188 2.0 15.0 0.00 0.00 0.00 10 1031.3
20260501212048 76 166 8.0 18.0 0.00 0.00 0.00 10 1031.4
20260501211149 76 186 10.0 18.0 0.00 0.00 0.00 10 1031.3
20260501210248 76 189 6.0 15.0 0.00 0.00 0.00 10 1031.3
20260501204448 76 200 13.0 15.0 0.00 0.00 0.00 10 1031.6
20260501203548 76 208 8.0 15.0 0.00 0.00 0.00 10 1031.5
20260501201748 76 217 4.0 17.0 0.00 0.00 0.00 10 1031.7
20260501200848 76 202 5.0 16.0 0.00 0.00 0.00 10 1031.6
20260501195948 75 200 2.0 17.0 0.00 0.00 0.00 10 1031.7
20260501195048 74 208 8.0 15.0 0.00 0.00 0.00 10 1031.8
20260501194148 74 191 3.0 12.0 0.00 0.00 0.00 12 1031.8
20260501193248 74 167 8.0 11.0 0.00 0.00 0.00 12 1031.9
20260501192348 73 167 8.0 14.0 0.00 0.00 0.00 14 1032.0
20260501185648 70 173 2.0 8.0 0.00 0.00 0.00 23 1032.5
20260501184748 69 186 3.0 6.0 0.00 0.00 0.00 24 1032.6
20260501183848 69 165 4.0 5.0 0.00 0.00 0.00 27 1032.9
20260501182948 69 135 2.0 5.0 0.00 0.00 0.00 31 1033.0
20260501182048 67 125 1.0 6.0 0.00 0.00 0.00 31 1033.1
20260501181148 67 137 4.0 6.0 0.00 0.00 0.00 29 1033.3
20260501180248 66 131 3.0 6.0 0.00 0.00 0.00 32 1033.3
20260501175348 65 118 1.0 6.0 0.00 0.00 0.00 35 1033.4
20260501173548 65 117 2.0 8.0 0.00 0.00 0.00 36 1033.7
20260501172649 63 96 2.0 8.0 0.00 0.00 0.00 40 1033.8
20260501170848 62 89 2.0 10.0 0.00 0.00 0.00 40 1034.1
20260501164148 59 104 4.0 8.0 0.00 0.00 0.00 47 1034.4
20260501163248 59 93 3.0 10.0 0.00 0.00 0.00 49 1034.6